Vorticity
1 2 4 4 5 4 8 6 8 1 4 5 3 6 17 4 2 5 7 7 5 7 7 7 9 7 4 5 6 7 16 9 7 17 1 -1 5 8 9 10 10 10 10
4 4 6 7 7 5 2 1 1 6 8 8 1 -4 9 8 5 2 2 5 7 4 8 5 8 6 7 3 5 7 13 11 5 11 34 3 3 3 5 5 8 8 8
8 8 8 7 8 6 5 5 5 2 1 9 -4 18 10 3 8 4 3 4 5 5 4 6 6 9 6 6 3 7 8 15 4 16 7 4 1 4 6 6 6 5 6
4 5 4 4 4 7 9 7 4 3 6 2 6 4 5 5 9 15 -3 3 4 5 4 9 4 7 12 8 4 5 7 7 9 6 9 8 7 5 6 7 6 4 4
6 5 5 5 7 6 5 4 7 7 6 6 4 4 3 -1 5 2 14 6 6 4 5 1 8 4 6 9 6 4 7 6 10 7 8 4 4 5 8 11 11 10 10
4 5 4 4 4 6 7 7 6 5 5 5 5 8 4 3 3 2 7 16 10 1 6 4 6 5 4 5 9 5 6 5 8 8 8 5 -1 -0 3 7 9 11 8
7 6 1 2 6 6 8 9 11 2 6 7 7 4 5 -4 2 7 4 -5 26 3 2 7 -1 4 3 3 9 7 5 6 5 8 6 0 -3 4 2 2 7 8 9
4 3 4 3 2 0 -0 -2 1 10 12 3 7 7 5 9 7 43 21 10 5 6 -5 3 6 -2 4 3 3 2 9 5 6 5 5 10 9 9 6 7 4 6 7
13 14 15 15 11 5 4 11 11 5 6 19 1 3 8 1 2 -6 -45 19 0 5 8 -5 3 11 -1 1 3 3 11 9 4 6 7 4 2 5 13 8 6 7 5
12 13 14 14 14 13 20 16 11 7 5 10 15 5 4 8 -0 7 18 -8 39 -12 19 24 -8 4 8 6 -1 4 1 6 5 3 5 5 6 4 8 12 8 11 7
12 15 18 22 19 16 16 19 22 15 22 22 15 19 4 1 6 5 15 17 -2 -9 6 -7 3 20 -2 24 6 2 -1 19 -1 5 4 4 7 7 8 3 10 11 3
9 6 6 7 8 9 10 9 10 15 14 11 13 21 15 6 2 4 3 6 7 15 21 14 11 13 -2 15 16 0 5 22 29 5 7 1 3 6 5 9 7 11 7
10 12 13 20 31 35 43 37 24 13 13 14 11 8 22 15 8 3 4 2 7 5 7 5 23 9 17 7 13 -2 19 -11 29 6 9 -1 8 2 -3 18 4 8 7
17 23 42 38 27 16 13 21 31 36 52 38 17 12 5 17 16 10 3 1 5 4 6 2 17 1 10 -31 -19 1 9 3 -12 7 7 1 6 5 4 12 12 8 7
37 30 6 16 7 17 17 20 17 17 7 15 36 51 38 7 14 20 8 5 4 4 4 4 -4 18 27 55 30 8 18 -16 51 42 3 1 4 4 2 3 -1 5 12
9 8 11 17 14 12 28 20 6 30 30 24 31 16 38 52 27 9 20 6 7 5 8 -5 3 -7 -12 -30 -9 -20 60 36 39 13 10 13 3 0 6 4 2 3 2
9 3 0 10 8 11 35 15 24 23 14 13 18 32 18 24 46 35 13 17 5 6 17 5 1 -1 9 16 34 39 -13 8 28 35 31 10 13 -9 6 7 7 -1 3
16 5 7 8 5 4 38 19 13 6 15 21 16 2 31 25 6 55 39 12 11 6 15 8 -5 8 3 16 10 -21 -25 22 29 32 28 -2 0 -4 10 14 6 4 5
15 15 13 12 9 6 14 24 11 6 -2 31 23 12 25 31 29 7 64 32 10 7 4 26 11 10 8 5 -6 -8 6 14 -7 -7 26 11 37 -8 16 -8 10 7 4
9 14 11 15 10 5 17 11 22 23 9 -9 34 12 19 12 18 19 47 54 17 11 6 54 30 12 11 2 8 9 10 8 20 21 14 19 12 1 14 11 10 9 6
8 8 8 8 10 12 9 5 12 21 24 22 -2 22 14 32 21 5 36 53 35 12 4 -8 -59 9 16 11 11 15 -12 -10 -2 8 14 11 10 8 4 15 12 7 10
1 6 11 7 7 10 10 6 5 12 19 24 16 24 16 17 7 50 24 17 57 -21 6 6 27 11 24 20 9 14 9 11 10 10 6 23 12 16 10 9 12 13 -0
9 5 5 8 8 10 12 9 5 -1 10 15 25 36 16 7 7 61 64 -15 40 21 -5 16 18 11 17 18 14 9 14 18 11 4 18 15 19 17 14 10 12 1 12
11 9 7 8 7 6 8 15 9 3 -2 21 34 11 16 14 15 13 5 -7 18 -31 -4 14 6 11 23 8 13 12 7 7 24 23 12 13 17 9 15 16 15 17 7
15 17 15 10 6 8 6 9 17 8 3 3 43 12 12 10 10 27 31 13 31 17 36 14 6 6 14 9 9 7 11 20 24 14 17 4 -9 11 9 20 1 -4 12
7 5 9 15 11 5 7 5 10 16 10 4 22 27 34 7 9 14 31 5 26 -8 20 31 11 9 11 16 7 11 5 -9 -5 13 10 3 11 -3 11 12 15 20 8
Height
5794 5792 5791 5790 5789 5788 5787 5787 5785 5785 5783 5781 5783 5784 5783 5781 5780 5781 5780 5780 5780 5780 5780 5778 5778 5777 5776 5775 5774 5773 5772 5773 5773 5774 5775 5778 5779 5781 5782 5784 5785 5788 5791
5784 5782 5780 5780 5780 5779 5779 5778 5777 5776 5776 5773 5773 5774 5776 5775 5774 5773 5773 5772 5774 5774 5774 5774 5773 5773 5772 5771 5770 5770 5769 5769 5770 5770 5771 5774 5777 5779 5780 5782 5783 5784 5786
5773 5771 5769 5768 5768 5768 5766 5766 5766 5765 5765 5764 5765 5766 5766 5767 5767 5766 5764 5764 5767 5767 5768 5768 5767 5767 5768 5767 5766 5766 5766 5765 5766 5766 5769 5771 5773 5775 5777 5779 5779 5781 5782
5762 5759 5757 5756 5755 5753 5754 5753 5753 5754 5754 5753 5752 5755 5756 5756 5757 5757 5755 5755 5758 5759 5760 5761 5761 5761 5761 5762 5762 5761 5762 5762 5762 5763 5764 5767 5768 5770 5772 5773 5776 5778 5779
5748 5747 5745 5744 5743 5742 5740 5739 5739 5739 5740 5741 5740 5740 5743 5745 5745 5745 5746 5747 5747 5749 5751 5753 5754 5754 5755 5756 5757 5757 5757 5758 5758 5759 5760 5761 5764 5765 5767 5769 5770 5773 5774
5733 5732 5731 5730 5730 5729 5728 5725 5724 5724 5723 5723 5724 5727 5728 5731 5732 5732 5735 5735 5737 5739 5741 5742 5745 5747 5748 5749 5750 5751 5751 5751 5753 5754 5756 5757 5758 5760 5762 5763 5764 5766 5769
5718 5715 5714 5713 5712 5710 5711 5711 5711 5709 5708 5706 5707 5709 5715 5716 5719 5716 5720 5725 5724 5730 5732 5734 5734 5737 5739 5741 5743 5745 5745 5746 5746 5748 5750 5752 5753 5754 5755 5757 5759 5760 5762
5699 5697 5694 5693 5691 5692 5691 5690 5692 5693 5693 5689 5689 5691 5694 5698 5701 5691 5701 5705 5712 5714 5717 5721 5723 5724 5728 5730 5735 5737 5739 5739 5739 5740 5742 5745 5746 5747 5748 5750 5753 5755 5756
5683 5679 5675 5671 5669 5668 5668 5668 5667 5671 5674 5674 5670 5670 5674 5675 5678 5682 5681 5691 5695 5699 5704 5707 5709 5711 5714 5719 5723 5725 5729 5732 5732 5733 5734 5736 5738 5740 5741 5742 5744 5747 5750
5661 5657 5652 5648 5645 5643 5642 5642 5643 5645 5646 5652 5652 5652 5652 5656 5658 5662 5667 5672 5675 5683 5689 5693 5695 5697 5701 5706 5710 5714 5718 5721 5723 5725 5725 5727 5729 5732 5735 5735 5737 5739 5743
5642 5637 5632 5629 5625 5620 5617 5617 5617 5619 5621 5623 5627 5632 5632 5634 5636 5640 5648 5658 5662 5667 5672 5677 5680 5682 5685 5690 5695 5700 5704 5707 5711 5715 5717 5718 5720 5723 5725 5728 5729 5732 5734
5626 5619 5612 5606 5600 5596 5593 5590 5592 5593 5596 5598 5600 5606 5610 5611 5615 5616 5622 5637 5643 5646 5653 5657 5663 5666 5670 5675 5681 5687 5691 5695 5699 5703 5708 5709 5710 5713 5716 5719 5721 5724 5726
5607 5600 5593 5585 5577 5570 5563 5562 5562 5565 5568 5571 5574 5579 5585 5588 5591 5598 5601 5613 5623 5628 5632 5638 5644 5649 5654 5660 5665 5669 5675 5680 5684 5689 5695 5699 5701 5703 5707 5709 5712 5714 5718
5591 5583 5573 5565 5558 5552 5545 5540 5537 5535 5537 5541 5546 5549 5557 5564 5567 5574 5582 5587 5600 5609 5613 5621 5628 5634 5639 5644 5648 5653 5657 5662 5669 5675 5680 5686 5690 5693 5697 5700 5703 5705 5708
5574 5567 5560 5552 5545 5537 5531 5525 5522 5519 5517 5516 5516 5519 5526 5536 5544 5549 5557 5566 5578 5586 5598 5606 5614 5619 5625 5628 5634 5638 5640 5646 5652 5658 5666 5673 5678 5681 5685 5690 5693 5696 5698
5563 5557 5549 5541 5534 5525 5517 5511 5507 5503 5501 5499 5498 5499 5499 5504 5513 5525 5532 5542 5553 5566 5576 5592 5599 5603 5608 5615 5620 5621 5626 5629 5635 5644 5652 5658 5665 5669 5674 5679 5683 5686 5689
5553 5548 5540 5532 5524 5515 5506 5499 5494 5491 5488 5486 5484 5483 5482 5481 5486 5496 5507 5517 5531 5544 5557 5574 5581 5585 5592 5604 5606 5611 5614 5618 5621 5627 5636 5645 5651 5656 5662 5668 5671 5675 5678
5543 5537 5530 5523 5515 5506 5496 5490 5485 5481 5476 5473 5471 5468 5465 5464 5468 5471 5479 5495 5511 5526 5541 5552 5564 5569 5581 5586 5592 5599 5605 5609 5613 5617 5623 5632 5637 5645 5651 5656 5659 5664 5667
5534 5527 5520 5513 5506 5498 5488 5480 5475 5470 5465 5460 5457 5455 5450 5449 5452 5454 5456 5471 5491 5507 5523 5533 5545 5554 5564 5571 5579 5587 5594 5599 5606 5609 5613 5619 5625 5632 5637 5643 5647 5652 5656
5525 5518 5511 5504 5497 5490 5482 5473 5465 5459 5454 5450 5445 5442 5439 5438 5439 5439 5439 5451 5472 5492 5508 5516 5525 5539 5550 5558 5565 5576 5584 5589 5593 5598 5603 5610 5614 5618 5623 5628 5633 5639 5644
5515 5509 5502 5495 5488 5482 5475 5467 5459 5451 5444 5440 5436 5431 5428 5427 5425 5425 5425 5434 5456 5478 5490 5496 5507 5524 5536 5545 5554 5562 5569 5575 5581 5586 5591 5597 5603 5606 5609 5614 5620 5627 5633
5505 5499 5493 5487 5481 5474 5468 5460 5453 5446 5437 5431 5426 5421 5419 5417 5415 5413 5415 5426 5443 5465 5468 5482 5494 5509 5520 5528 5537 5547 5555 5562 5570 5575 5579 5584 5588 5591 5595 5601 5609 5614 5619
5494 5489 5484 5478 5472 5466 5460 5454 5447 5440 5431 5424 5417 5413 5412 5410 5407 5406 5410 5419 5436 5453 5463 5470 5484 5494 5505 5514 5524 5533 5541 5549 5555 5558 5564 5569 5572 5577 5581 5587 5594 5601 5605
5482 5477 5473 5468 5463 5458 5452 5446 5441 5434 5427 5418 5410 5407 5406 5405 5403 5402 5407 5415 5425 5431 5445 5461 5472 5482 5492 5501 5510 5519 5527 5534 5538 5543 5549 5554 5559 5565 5568 5574 5580 5586 5591
5470 5465 5462 5458 5453 5448 5443 5438 5433 5427 5422 5415 5407 5402 5401 5401 5401 5398 5401 5409 5418 5429 5432 5449 5462 5470 5479 5489 5498 5506 5514 5520 5524 5530 5535 5540 5546 5551 5556 5561 5566 5573 5577
5460 5455 5450 5446 5442 5438 5434 5429 5425 5419 5414 5410 5406 5399 5395 5394 5395 5395 5396 5402 5411 5420 5427 5439 5449 5458 5467 5476 5484 5492 5499 5506 5512 5516 5521 5529 5533 5538 5543 5549 5554 5560 5566